COSMOS 1417 DEB

Satellite information

Favourite Embed

Satellite Type and Status

DEBRISIN ORBIT

Key statistics

Satellite COSMOS 1417 DEB at a glance.

Uptime

15762

Days in orbit

Revolutions

≈ 13.8

Per day

Orbit

LEO

Low Earth Orbit

Inclination

83.0

Latest

Satellite identification and parameters

Extended collection of information and parameters for COSMOS 1417 DEB.

Object identification

Identified? True

Debris? True

Object name: COSMOS 1417 DEB

International designator: 1982-102D

Object number (NORAD): 37865

Object ID (CCSDS): 37865

Country: COMMONWEALTH OF INDEPENDENT STATES (CIS)

Current information (Y/N): Y

RCS size: SMALL

Orbital parameters

Period: 104.647 minutes

Inclination: 82.9704 deg

SMA: 7356.065 km

Apoapsis: 1002.912 km

Periapsis: 952.947 km

RAAN: 34.8794 deg

Eccentricy: 0.0033962

Argument of periapsis: 215.7013 deg

Mean anomaly: 144.1873 deg

Mean motion: 13.7605077 rev/day

Mean motion (dot): 0.00000119 rev/day2

B* drag term: 0.00010689 1/REarth

Two-line elements (TLE)

Creation date: Dec. 12, 2025, 7:16 a.m.

Reference frame: TEME

Reference center: EARTH

Epoch: Dec. 11, 2025, 8:38 p.m. UTC

TLE line 0: 0 COSMOS 1417 DEB

TLE line 1: 1 37865U 82102D 25345.86028845 .00000119 00000-0 10689-3 0 9990

TLE line 2: 2 37865 82.9704 34.8794 0033962 215.7013 144.1873 13.76050770560081

Live tracking on map

Real-time ground track for satellite COSMOS 1417 DEB.

In-orbit conjunctions

A list of the most updated potential collisions computed for object COSMOS 1417 DEB.

Target Orbit TCA Probability of collision Miss distance Type
COSMOS 1275 DEB LEO 2025-09-23 16:36:40 0.0001676025 112.0 (m) DEBRIS
DELTA 1 DEB SSO 2024-11-11 20:26:56 0.0001283272 326.0 (m) DEBRIS

Associated space launch

Navigation satellite providing location information for the Tsiklon-B navigation system

COSMOS 1417 DEB was lifted into orbit during the mission ‘Kosmos-3M | Parus 35’, on board a Kosmos-3M space rocket.

The launch took place on Oct. 19, 1982, 5:58 a.m. from 132/1 (132L).

For more information about the launch, click the button.

Launch to space Kosmos-3M | Parus 35
Kosmos-3M | Parus 35

Agency: N/A

Status: Launch Successful

Launch date: Oct. 19, 1982, 5:58 a.m. UTC

Rocket: Kosmos-3M

Launch pad: 132/1 (132L)

Location: Plesetsk Cosmodrome, Russian Federation

...

Latest news about this satellite

There are no fresh news available about this satellite. Check back as we update our databases every day.


Newsletter sign-up

Weekly statistics, charts and insights to help you stay on top of the space industry.